[[{"header":{"parameterUnit":"m.s-1","parameterCategory":1,"la1":30.2991,"la2":30.254,"lo1":-89.0895,"lo2":-89.0444,"dy":0.0017,"dx":0.0017,"nx":28,"ny":28,"refTime":"2024-07-30T09:00:00:Z","depth":0,"parameterNumber":2,"parameterNumberName":"U-component_of_WINDS"},"data":[0,0,0,0,0,0,0,0,0,0,0,0,0,0,0,0,0,0,0,0,0,0,0,0,0,0,0,0,0,0,0,0,0,0,0,0,0,0,0,0,0,0,0,0,0,0,0,0,0,0,0,0,0,0,0,0,0,0,2.6798,2.6799,0,2.6835,2.6836,2.6836,2.6823,2.6823,2.6822,2.6821,2.686,2.6861,2.6863,0,0,0,0,0,0,0,0,0,0,0,0,0,2.6719,2.672,2.6798,2.6799,2.6799,2.6835,2.6836,2.6836,2.6823,2.6822,2.6821,2.6821,2.6859,2.6861,2.6863,0,0,0,0,0,0,0,0,0,0,0,0,0,2.6754,2.6721,2.6798,2.6797,2.6797,2.6835,2.6836,2.6836,2.6824,2.6822,2.6821,2.682,2.6858,2.6861,2.6864,2.6905,0,0,2.6872,2.6873,0,0,0,0,0,0,0,0,2.6752,2.6757,2.6797,2.6797,2.6798,2.6823,2.6822,2.6859,2.6824,2.6814,2.6821,2.6819,2.6849,2.6852,2.6862,2.6907,2.6908,2.6872,2.6874,2.6875,2.6876,0,0,0,0,0,0,0,2.675,2.6756,2.6813,2.6797,2.6798,2.6796,2.6799,2.6829,2.6838,2.6814,2.6814,2.6818,2.6849,2.6859,2.6863,2.6909,2.6872,2.6874,2.6876,2.6877,2.6993,2.6994,0,0,0,0,0,0,2.6747,2.6754,2.6812,2.6814,2.6771,2.6798,2.6802,2.6816,2.6837,2.6839,2.6819,2.6817,2.6855,2.6859,2.6864,2.6915,2.6875,2.6877,2.6879,2.6991,2.6993,2.6994,0,0,0,0,0,0,2.6745,2.6752,2.681,2.6784,2.6791,2.6801,2.6817,2.6818,2.6828,2.6841,2.6842,2.6828,2.6854,2.686,2.6895,2.6916,2.6879,2.6881,2.6989,2.6992,2.6994,2.7017,0,0,0,0,0,0,2.6743,2.6752,2.6767,2.6784,2.6792,2.684,2.6818,2.6819,2.6833,2.6831,2.685,2.6852,2.6854,2.6891,2.6898,2.6919,2.6883,2.6988,2.699,2.6993,2.7015,2.702,2.7025,0,0,0,0,0,2.674,2.6771,2.6767,2.6774,2.6811,2.6841,2.6846,2.6848,2.6834,2.685,2.6859,2.6851,2.6913,2.6895,2.6902,2.6925,2.6986,2.699,2.6993,2.7012,2.7019,2.7024,0,0,0,0,0,0,2.6756,2.6773,2.6769,2.6807,2.6823,2.6839,2.6859,2.6854,2.6874,2.6872,2.6873,2.6878,2.6915,2.6923,2.6903,2.6968,2.6948,2.6953,2.696,2.6967,2.6971,2.6969,2.6885,0,0,0,0,0,2.6763,2.6786,2.6801,2.6832,2.6841,2.6849,2.6862,2.6862,2.6879,2.6885,2.6896,2.6913,2.6937,2.6952,2.6974,2.7016,2.7021,2.7036,2.704,2.7044,2.7049,2.7074,2.7081,2.7005,2.7005,2.7005,0,0,2.6779,2.6792,2.6806,2.6836,2.6848,2.6873,2.6854,2.688,2.6899,2.6889,2.6924,2.6933,2.6952,2.6991,2.7009,2.7,2.7071,2.7049,2.7052,2.7054,2.7078,2.7085,2.7092,2.7007,2.7007,2.7007,0,0,2.6822,2.6833,2.6861,2.6875,2.6894,2.69,2.6907,2.6925,2.693,2.6965,2.6959,2.6982,2.7022,2.7036,2.7049,2.71,2.7094,2.7107,2.7133,2.7158,2.7164,2.7169,2.7189,2.7196,2.7112,2.7112,2.7112,0,2.6839,2.6875,2.6877,2.6904,2.6918,2.6912,2.6942,2.6955,2.698,2.6991,2.698,2.7032,2.7044,2.7088,2.7101,2.7111,2.712,2.7105,2.7163,2.7168,2.7173,2.7192,2.7199,2.7113,2.7113,2.7113,2.7113,0,2.6897,2.6922,2.6943,2.6969,2.6986,2.7014,2.7021,2.7038,2.7038,2.7045,2.7082,2.7097,2.7123,2.7133,2.7133,2.7178,2.7172,2.7162,2.7142,2.7182,2.72,2.7207,2.7115,2.7115,2.7114,2.7114,0,0,2.6948,2.6976,2.6984,2.6997,2.7019,2.7039,2.7068,2.7094,2.711,2.7128,2.7154,2.7189,2.7181,2.7196,2.7197,2.7218,2.7261,2.7206,2.7207,2.7217,2.7314,2.7322,2.733,2.7257,2.7258,2.7259,2.7313,0,2.6993,2.7044,2.7048,2.7094,2.7119,2.7114,2.714,2.7158,2.7166,2.7189,2.7198,2.7224,2.721,2.7219,2.724,2.7251,2.728,2.7247,2.7282,2.7283,2.7278,2.7339,2.7347,2.7396,2.732,2.7321,2.7322,0,2.7051,2.7073,2.7122,2.7143,2.7154,2.7177,2.7203,2.7224,2.7245,2.7249,2.7267,2.7266,2.7298,2.7278,2.7322,2.73,2.7315,2.7323,2.7325,2.7328,2.7305,2.7345,2.7412,2.7419,2.7332,2.7331,2.7331,0,2.7086,2.7127,2.7162,2.7173,2.7198,2.7215,2.7226,2.7246,2.7262,2.7285,2.7296,2.7322,2.7336,2.7357,2.7364,2.7348,2.7409,2.7389,2.7415,2.7415,2.7428,2.7427,2.7499,2.7437,2.7437,2.7437,2.7436,0,2.7136,2.7166,2.7178,2.72,2.7235,2.724,2.7275,2.7285,2.7303,2.7328,2.7326,2.7349,2.7357,2.7382,2.7388,2.7425,2.7432,2.7437,2.7439,2.7438,2.7437,2.7448,2.7445,2.7439,2.7438,2.7438,2.7437,0,2.7179,2.7188,2.7227,2.7248,2.7255,2.728,2.7299,2.7321,2.7329,2.7361,2.7369,2.7383,2.7413,2.7422,2.7458,2.7462,2.7506,2.7504,2.7499,2.75,2.7526,2.7524,2.7607,2.7619,2.7548,2.7549,2.755,0,2.7211,2.7234,2.7259,2.7276,2.7288,2.7314,2.7332,2.7338,2.7356,2.7383,2.7402,2.7432,2.7456,2.7505,2.7519,2.7547,2.7546,2.7573,2.755,2.7549,2.7548,2.7547,2.755,2.7578,2.7578,2.7579,2.7579,0,2.7266,2.727,2.7295,2.7322,2.7342,2.7364,2.7385,2.7399,2.7409,2.7429,2.746,2.7479,2.7517,2.7547,2.7577,2.7589,2.7587,2.7587,2.7595,2.7594,2.7591,2.7595,2.7512,2.7585,2.7584,2.7584,2.7584,2.7583,2.7306,2.7327,2.7349,2.7377,2.7394,2.7414,2.7436,2.7448,2.7474,2.7505,2.7508,2.7542,2.7565,2.7604,2.7618,2.7646,2.7638,2.7649,2.7652,2.7655,2.7658,2.7587,2.7651,2.7651,2.7651,2.7651,2.7651,0,2.7362,2.7376,2.7402,2.7432,2.7455,2.7451,2.7474,2.7494,2.7524,2.7545,2.7569,2.7606,2.7636,2.7654,2.7684,2.7703,2.7703,2.7711,2.771,2.7713,2.7662,2.7653,2.7711,2.7711,2.7711,2.7711,2.7711,2.7711,2.7394,2.7432,2.7439,2.7485,2.7499,2.7533,2.7547,2.7566,2.7583,2.7624,2.765,2.7661,2.7681,2.7713,2.7742,2.7746,2.7758,2.7767,2.7771,2.7723,2.7717,2.7711,2.7702,2.7769,2.7769,2.782,2.782,2.7821]},{"header":{"parameterUnit":"m.s-1","parameterCategory":1,"la1":30.2991,"la2":30.254,"lo1":-89.0895,"lo2":-89.0444,"dy":0.0017,"dx":0.0017,"nx":28,"ny":28,"refTime":"2024-07-30T09:00:00:Z","depth":0,"parameterNumber":3,"parameterNumberName":"V-component_of_WINDS"},"data":[0,0,0,0,0,0,0,0,0,0,0,0,0,0,0,0,0,0,0,0,0,0,0,0,0,0,0,0,0,0,0,0,0,0,0,0,0,0,0,0,0,0,0,0,0,0,0,0,0,0,0,0,0,0,0,0,0,0,-2.7601,-2.7602,0,-2.7673,-2.7674,-2.7675,-2.7691,-2.769,-2.769,-2.7689,-2.7762,-2.7764,-2.7766,0,0,0,0,0,0,0,0,0,0,0,0,0,-2.7476,-2.7478,-2.7601,-2.7602,-2.7603,-2.7673,-2.7674,-2.7675,-2.7691,-2.769,-2.7689,-2.7689,-2.7761,-2.7764,-2.7767,0,0,0,0,0,0,0,0,0,0,0,0,0,-2.7538,-2.7479,-2.7601,-2.7619,-2.7621,-2.7673,-2.7674,-2.7675,-2.7691,-2.769,-2.7689,-2.7689,-2.776,-2.7763,-2.7767,-2.7805,0,0,-2.7778,-2.778,0,0,0,0,0,0,0,0,-2.7534,-2.7542,-2.7615,-2.7618,-2.762,-2.7672,-2.7657,-2.7719,-2.7691,-2.7664,-2.7689,-2.7688,-2.7732,-2.7738,-2.7753,-2.7808,-2.7811,-2.7778,-2.778,-2.7782,-2.7783,0,0,0,0,0,0,0,-2.753,-2.7539,-2.7629,-2.7616,-2.762,-2.7624,-2.7631,-2.7668,-2.7702,-2.7667,-2.7668,-2.7676,-2.7734,-2.775,-2.7755,-2.7812,-2.7778,-2.7781,-2.7784,-2.7785,-2.7904,-2.7905,0,0,0,0,0,0,-2.7522,-2.7535,-2.7627,-2.7631,-2.7575,-2.7626,-2.7635,-2.7656,-2.7701,-2.7708,-2.7677,-2.7677,-2.7744,-2.7751,-2.7758,-2.7807,-2.7782,-2.7785,-2.7787,-2.7903,-2.7904,-2.7905,0,0,0,0,0,0,-2.752,-2.753,-2.7624,-2.7584,-2.7596,-2.7629,-2.7653,-2.7658,-2.7674,-2.7709,-2.7715,-2.7688,-2.7744,-2.7753,-2.7794,-2.7809,-2.7787,-2.779,-2.7902,-2.7903,-2.7905,-2.7904,0,0,0,0,0,0,-2.7516,-2.7529,-2.7544,-2.7584,-2.7598,-2.7659,-2.7654,-2.766,-2.7681,-2.7681,-2.7721,-2.7726,-2.7744,-2.7788,-2.7797,-2.7814,-2.7793,-2.7901,-2.7903,-2.7904,-2.7902,-2.7905,-2.7907,0,0,0,0,0,-2.7512,-2.754,-2.7545,-2.7556,-2.7617,-2.7659,-2.7668,-2.7687,-2.7682,-2.7697,-2.772,-2.7725,-2.7806,-2.7792,-2.7802,-2.7821,-2.79,-2.7902,-2.7904,-2.7901,-2.7904,-2.7907,0,0,0,0,0,0,-2.75,-2.7545,-2.7551,-2.7593,-2.7623,-2.7662,-2.7682,-2.769,-2.772,-2.772,-2.7742,-2.7751,-2.7791,-2.781,-2.7793,-2.7861,-2.7853,-2.7857,-2.7847,-2.785,-2.7852,-2.7847,-2.7796,0,0,0,0,0,-2.7502,-2.7533,-2.7571,-2.7605,-2.7619,-2.7648,-2.7667,-2.768,-2.7711,-2.7723,-2.7749,-2.7778,-2.7811,-2.7831,-2.7863,-2.7905,-2.7915,-2.7923,-2.7925,-2.7927,-2.793,-2.7956,-2.7961,-2.7913,-2.7913,-2.7913,0,0,-2.7507,-2.7536,-2.7554,-2.7603,-2.7627,-2.7659,-2.7658,-2.7691,-2.7715,-2.7728,-2.7769,-2.7789,-2.7823,-2.7866,-2.7885,-2.7882,-2.7946,-2.793,-2.7931,-2.7934,-2.7959,-2.7963,-2.7968,-2.7914,-2.7914,-2.7914,0,0,-2.7533,-2.7557,-2.7589,-2.7614,-2.7651,-2.767,-2.7678,-2.7717,-2.7731,-2.7772,-2.7783,-2.7812,-2.7866,-2.7891,-2.7911,-2.7948,-2.7955,-2.7958,-2.797,-2.7995,-2.7999,-2.8002,-2.8017,-2.8022,-2.7961,-2.7961,-2.7961,0,-2.7534,-2.7583,-2.7604,-2.7637,-2.7659,-2.7674,-2.7706,-2.7729,-2.7774,-2.7789,-2.7785,-2.7856,-2.788,-2.7929,-2.7938,-2.7953,-2.7963,-2.7954,-2.7996,-2.8,-2.8004,-2.8018,-2.8023,-2.7961,-2.7961,-2.7961,-2.7961,0,-2.7584,-2.7617,-2.7638,-2.7683,-2.7707,-2.774,-2.7766,-2.7788,-2.78,-2.7819,-2.7862,-2.7892,-2.7931,-2.7943,-2.7954,-2.7995,-2.7992,-2.7992,-2.7984,-2.8008,-2.8022,-2.8028,-2.7962,-2.7962,-2.7962,-2.7962,0,0,-2.7603,-2.7661,-2.7668,-2.7689,-2.7732,-2.7759,-2.7792,-2.7831,-2.785,-2.7881,-2.7911,-2.7958,-2.7959,-2.7981,-2.7995,-2.8016,-2.8046,-2.8014,-2.8015,-2.802,-2.8095,-2.8096,-2.8101,-2.8051,-2.8052,-2.8053,-2.8093,0,-2.7635,-2.7697,-2.7718,-2.7769,-2.7801,-2.7816,-2.7846,-2.7875,-2.7895,-2.7925,-2.7947,-2.798,-2.7978,-2.7992,-2.8014,-2.8038,-2.8062,-2.8035,-2.8079,-2.8081,-2.8071,-2.8109,-2.8109,-2.8145,-2.8098,-2.8099,-2.81,0,-2.768,-2.7714,-2.7768,-2.7809,-2.7823,-2.785,-2.7888,-2.7916,-2.7951,-2.7964,-2.799,-2.8002,-2.8039,-2.8029,-2.8081,-2.8062,-2.8082,-2.8096,-2.8098,-2.8104,-2.8092,-2.8116,-2.8157,-2.8163,-2.8108,-2.8107,-2.8107,0,-2.7691,-2.7749,-2.779,-2.7808,-2.7856,-2.7874,-2.7895,-2.7929,-2.7951,-2.7985,-2.8,-2.8036,-2.8057,-2.8085,-2.8108,-2.8098,-2.8158,-2.8149,-2.817,-2.817,-2.8182,-2.8181,-2.8228,-2.8193,-2.8193,-2.8193,-2.8193,0,-2.7725,-2.7758,-2.7796,-2.7821,-2.7859,-2.7883,-2.792,-2.7942,-2.7972,-2.8002,-2.8016,-2.8044,-2.8072,-2.8103,-2.8121,-2.8162,-2.817,-2.8183,-2.8187,-2.8182,-2.8181,-2.8196,-2.8194,-2.8194,-2.8194,-2.8194,-2.8193,0,-2.7744,-2.777,-2.7816,-2.7858,-2.787,-2.7896,-2.7932,-2.7958,-2.7978,-2.8016,-2.8027,-2.8059,-2.8098,-2.8123,-2.8171,-2.8183,-2.8228,-2.8231,-2.8217,-2.8219,-2.8239,-2.8238,-2.8298,-2.8308,-2.8265,-2.8265,-2.8265,0,-2.7764,-2.779,-2.7836,-2.7858,-2.7879,-2.7913,-2.7937,-2.7962,-2.7986,-2.8028,-2.8049,-2.8088,-2.8121,-2.8181,-2.8209,-2.8247,-2.8252,-2.8271,-2.8258,-2.8252,-2.8254,-2.8253,-2.8256,-2.8273,-2.8273,-2.8273,-2.8274,0,-2.7798,-2.7811,-2.7844,-2.7883,-2.7912,-2.7943,-2.7975,-2.7992,-2.8022,-2.8049,-2.8088,-2.8114,-2.8165,-2.8204,-2.8244,-2.8266,-2.8275,-2.8277,-2.8285,-2.828,-2.8271,-2.8278,-2.8224,-2.8276,-2.8276,-2.8276,-2.8275,-2.8275,-2.7819,-2.7844,-2.7881,-2.7919,-2.7945,-2.7975,-2.8002,-2.8027,-2.8061,-2.8104,-2.8117,-2.8159,-2.8194,-2.825,-2.8272,-2.8305,-2.8303,-2.8313,-2.8316,-2.8318,-2.8319,-2.8265,-2.8313,-2.8313,-2.8313,-2.8312,-2.8312,0,-2.7856,-2.788,-2.7915,-2.796,-2.799,-2.7997,-2.8032,-2.8057,-2.8094,-2.8127,-2.8159,-2.8206,-2.8245,-2.8276,-2.8317,-2.8337,-2.8343,-2.8347,-2.8346,-2.8352,-2.8318,-2.8309,-2.8342,-2.8342,-2.8342,-2.8342,-2.8342,-2.8342,-2.7878,-2.7921,-2.7938,-2.7995,-2.8019,-2.8061,-2.8081,-2.8109,-2.8135,-2.8187,-2.822,-2.8241,-2.8273,-2.8316,-2.8352,-2.8361,-2.8376,-2.8379,-2.8389,-2.8357,-2.8354,-2.835,-2.8342,-2.8382,-2.8382,-2.842,-2.842,-2.842]}]]